Location: Casteau
(50.5142°N, 4.0161°E)
Time: 02:24:12
(UTC+00:00)

S-56A Canister/Altair - Pass Details

Date: 05 August 2021
Orbit: 632 x 2500 km, 38.9° (Epoch: 16 September)

Event Time Altitude Azimuth Distance (km) Brightness Sun altitude
Rises 14:56:39 0° 248° (WSW) 5,377 12.7 39.8°
Reaches altitude 10° 14:59:59 10° 243° (WSW) 4,583 12.7 39.4°
Maximum altitude 15:12:41 52° 173° (S) 2,891 11.1 37.5°
Drops below altitude 10° 15:26:54 10° 104° (ESE) 5,089 11.4 35.4°
Sets 15:30:50 0° 100° (E) 5,993 11.6 34.8°
